Home > Weather > Surrey > Past weeks

Flag for Canada Weather for the Past 2 Weeks in Surrey, British Columbia, Canada

Now
43 °F

Quite cool.


Feels Like: 40 °F
Forecast: 41 / 51 °F
Wind: 6 mph from North

Location: P. Meadows Coastal Station

Current Time: Feb 11, 2016 at 5:53:18 AM

Latest Report: Feb 11, 2016 at 5:00 AM


Visibility: N/A

Pressure: 30.25 "Hg

Humidity: 99%

Dew point: 43 °F

Location of SurreyLocation

Historic Weather in Surrey — Graph

°F

Surrey Temperature Yesterday

Maximum temperature yesterday: 53 °F (at 4:00 PM)
Minimum temperature yesterday: 38 °F (at 2:00 AM)
Average temperature yesterday: 45 °F

High & Low Weather Summary for the Past Weeks

 TemperatureHumidityPressure
High59 °F (Feb 9, 4:00 PM)100% (Jan 27, 2:00 PM)30.62 "Hg (Jan 27, 2:00 PM)
Low33 °F (Jan 30, 2:00 AM)55% (Feb 9, 4:00 PM)29.60 "Hg (Jan 29, 11:00 AM)
Average43 °F90%30.14 "Hg
* Reported Jan 27 4:00 AM — Feb 11 4:00 AM, Surrey, Weather by CustomWeather, © 2016

Note: Actual official high and low records may vary slightly from our data, if they occured in-between our weather recording intervals... More about our weather records

Advertising

Surrey Weather History for the Previous 24 Hours

 ConditionsComfort  
Time TempWeatherWind HumidityBarometerVisibility
4:00 AM
Thu, Feb 11
37 °FChilly.No wind99%30.27 "HgN/A
3:00 AM36 °FChilly.2 mph99%30.29 "HgN/A
2:00 AM38 °FChilly.No wind99%30.29 "HgN/A
1:00 AM40 °FQuite cool.No wind98%30.30 "HgN/A
12:00 AM38 °FChilly.1 mph99%30.32 "HgN/A
11:00 PM
Wed, Feb 10
38 °FChilly.1 mph98%30.30 "HgN/A
10:00 PM41 °FQuite cool.1 mph98%30.29 "HgN/A
9:00 PM42 °FQuite cool.1 mph97%30.28 "HgN/A
8:00 PM45 °FQuite cool.2 mph95%30.26 "HgN/A
7:00 PM48 °FCool.2 mph94%30.24 "HgN/A
6:00 PM49 °FCool.1 mph94%30.23 "HgN/A
5:00 PM51 °FCool.1 mph95%30.21 "HgN/A
4:00 PM53 °FCool.1 mph86%30.20 "HgN/A
3:00 PM51 °FCool.1 mph91%30.18 "HgN/A
2:00 PM53 °FCool.2 mph89%30.18 "HgN/A
1:00 PM49 °FCool.2 mph95%30.18 "HgN/A
12:00 PM46 °FCool.2 mph100%30.18 "HgN/A
11:00 AM46 °FCool.3 mph95%30.16 "HgN/A
10:00 AM45 °FCool.3 mph93%30.15 "HgN/A
9:00 AM45 °FQuite cool.7 mph91%30.09 "HgN/A
8:00 AM44 °FQuite cool.1 mph91%30.10 "HgN/A
7:00 AM44 °FQuite cool.1 mph90%30.07 "HgN/A
6:00 AM43 °FQuite cool.1 mph91%30.09 "HgN/A
5:00 AM43 °FQuite cool.2 mph94%30.06 "HgN/A
Weather by CustomWeather, © 2016

See weather overviewHow to use our weather pages